STARLINK-32153, 60330

Orbit data source: Space-Track

STARLINK-32153, 60330 is a payload satellite owned by SpaceX/Seattle (US) in LEO that was launched on Fri, 02 Aug 2024 UTC via an FALCON 9 launch vehicle from the Air Force Eastern Test Range (AFETR). Payload-class satellites include a variety of spacecraft equipped with specific instruments for various scientific and technological missions. These include communications satellites like Starlink; space stations such as the ISS; scientific satellites like the Hubble; Earth observation satellites from companies like Planet Labs, Umbra, and HawkEye 360; GPS; miniature CubeSats for education and research; and military/defense satellites.

Loading next visibility...
Identifier
60330, 2024-136B
Orbit
LEO
Last TLE update
18 hours ago
Origin
Manufacturer
SpaceX/Seattle
Mission
Operational Commercial Communications
Bus & Motor
STARLINK V2M, Unknown motor
Mass
730 kg wet, ~700 kg dry
Launch date (UTC)
2024-08-02 (9 months ago)
Launch vehicle
FALCON 9
Launch site
Air Force Eastern Test Range (AFETR)
Object type
Payload
Rocket body
Debris
Shape & HBR
Box + 2 Pan, 29 m
Radar Cross Section
33.884 m², Large (>1 m²)

Expand to show TLE details & history

TLE from 18 hours ago
0 STARLINK-32153
1 60330U 24136B   25128.49589835 -.00000105  00000-0  85676-5 0  9991
2 60330  53.1615  53.5742 0001165  91.4017 268.7118 15.30187637 42938
Epoch: 2025-05-08T11:54Z
Definitive object data (Epoch: 2025-05-08T11:54:05.617Z)
Latitude
0.00004°
Longitude
8.48526°
Altitude
476.17 km
Speed
7.629 km/s
True Right ascension
03h 34m 17s
True Declination
0° 00' 00"
Sunlit
Object was in daylight at TLE epoch
Visualization TLE readout
Latitude
-53.15945°
Longitude
-91.13749°
Altitude
494.528 km
Speed
7.617 km/s
Apparent Right ascension
23h 58m 37s
Apparent Declination
-54° 34' 48"
Sunlit
Object is in daylight
Visualization observer readout
Local Sidereal Time
14:27:03
Azimuth
133.209° SE
Elevation
-61.333°
Doppler factor
1
Orbital elements
Apogee altitude
476.307 km
Perigee altitude
474.71 km
Semi-major axis
6,853.645 km
Eccentricity
0.0001165
Inclination
53.1615°
RAAN
53.5742°
Arg. of periapsis
91.4017°
True anomaly
268.69845°
Mean anomaly
268.7118°
Eccentric anomaly
268.70513°
Mean motion
3.82526 °/min
BSTAR
0.0000085676
Orbital period
94.11 mins
Loading maneuver chart data...
Loading SW <> Apogee altitude chart data...
Loading historical data...
Loading historical data...
Loading historical data...
Loading historical data...
Loading historical data...
Loading historical data...
Loading historical data...

STARLINK-32153 Visibility forecast

Observer location: undefined°, undefined°

Span
Click to sort rows by Start time (UTC) header in descending order
Start Az.
Max El. time (UTC)
Max El. Az.
Max El.
End time (UTC)
End Az.
6 mins2025-05-09 20:59:14.288Z203.85° SW2025-05-09 21:02:14.288Z121.089° SE34.974°2025-05-09 21:05:14.288Z62.467° ENE
4 mins2025-05-09 22:38:14.288Z289.08° WNW2025-05-09 22:40:14.288Z338.027° N23.579°2025-05-09 22:42:14.288Z20.822° NNE
5 mins2025-05-10 03:35:14.288Z338.414° N2025-05-10 03:37:14.288Z47.859° ENE32.693°2025-05-10 03:40:14.288Z104.611° ESE
4 mins2025-05-10 05:13:14.288Z263.996° W2025-05-10 05:14:14.288Z241.562° WSW21.38°2025-05-10 05:17:14.288Z179.573° S
|